Regional Weather Roundup
Issued by NWS

Home | Current Version | Previous Version | Text Only | Print | Product List | Glossary Off
Versions: 1 2 3 4 5 6 7 8 9 10 11 12 13 14 15 16 17 18 19 20 21 22 23 24 25 26 27 28 29 30 31 32 33 34 35 36 37 38 39 40 41 42 43 44 45 46 47 48 49 50

000
ASUS43 KTOP 230008
RWRKS

WEATHER ROUNDUP FOR KANSAS
NATIONAL WEATHER SERVICE GOODLAND KS
700 PM CDT WED OCT 22 2014

NOTE:  "FAIR" INDICATES FEW OR NO CLOUDS BELOW 12,000 FEET WITH NO
SIGNIFICANT WEATHER AND/OR OBSTRUCTIONS TO VISIBILITY.

KSZ001>006-013>018-027>032-041>047-230100-
NORTHWEST KANSAS

CITY           SKY/WX    TMP DP  RH WIND       PRES   REMARKS
GOODLAND       CLEAR     60  47  61 E6        30.05R
6HR MIN TEMP:  60; 6HR MAX TEMP:  74;

HAYS           CLOUDY    64  54  68 S13       30.02R
HILL CITY      CLOUDY    70  57  63 S7        30.02R THUNDER
6HR MIN TEMP:  69; 6HR MAX TEMP:  75; 6HR PCP: TRACE;

RUSSELL        CLOUDY    65  56  72 S14       30.01R
6HR MIN TEMP:  65; 6HR MAX TEMP:  76; 6HR PCP: TRACE;

$$

KSZ061>065-074>080-084>089-230100-
SOUTHWEST KANSAS

CITY           SKY/WX    TMP DP  RH WIND       PRES   REMARKS
DODGE CITY     MOCLDY    63  56  78 S15       30.03R
6HR MIN TEMP:  63; 6HR MAX TEMP:  71;

ELKHART          N/A     72  51  47 NW5         N/A
GARDEN CITY    PTCLDY    68  56  65 S14       30.00R
6HR MIN TEMP:  68; 6HR MAX TEMP:  74;

GREAT BEND     CLOUDY    64  55  72 S17       30.04R
LIBERAL        CLEAR     70  55  60 SE16G23   30.03R
PRATT          CLOUDY    61  55  82 S9        30.06S
$$

KSZ066>073-081>083-090>101-230100-
SOUTHEAST KANSAS

CITY           SKY/WX    TMP DP  RH WIND       PRES   REMARKS
CHANUTE        PTCLDY    68  58  70 SE7       30.09R
6HR MIN TEMP:  67; 6HR MAX TEMP:  78;

COFFEYVILLE    PTCLDY    69  57  65 S7        30.09R
6HR MIN TEMP:  69; 6HR MAX TEMP:  78;

HUTCHINSON     LGT RAIN  64  57  78 S13       30.07R
6HR MIN TEMP:  64; 6HR MAX TEMP:  81; 6HR PCP:  0.02;

MEDICINE LODGE   N/A     64  58  80 S6        30.05R
NEWTON         CLOUDY    70  52  52 S12       30.08R
PARSONS        PTCLDY    69  58  67 CALM      30.10R
6HR MIN TEMP:  69; 6HR MAX TEMP:  79;

WICHITA INTL   CLOUDY    73  54  51 S9        30.05R
6HR MIN TEMP:  73; 6HR MAX TEMP:  80;

WICHITA JABRA  CLOUDY    71  54  54 S9        30.05R
6HR MIN TEMP:  71; 6HR MAX TEMP:  79;

WICHITA MCCONL CLOUDY    72  53  52 SE8       30.06R
WINFIELD       CLOUDY    70  58  65 S8        30.07S
6HR MIN TEMP:  70; 6HR MAX TEMP:  79;

$$

KSZ007>012-019>026-033>040-048>060-102>105-230100-
NORTHEAST KANSAS

CITY           SKY/WX    TMP DP  RH WIND       PRES   REMARKS
CONCORDIA      LGT RAIN  63  59  87 S10       30.02R
6HR MIN TEMP:  63; 6HR MAX TEMP:  78;

EMPORIA        LGT RAIN  69  56  62 SE9       30.06S
6HR MIN TEMP:  69; 6HR MAX TEMP:  78; 6HR PCP: TRACE;

LAWRENCE       CLEAR     67  56  67 SE9       30.08S
6HR MIN TEMP:  67; 6HR MAX TEMP:  75;

MANHATTAN      PTCLDY    73  55  53 S9        30.03R
6HR MIN TEMP:  73; 6HR MAX TEMP:  80;

MARYSVILLE     PTCLDY    72  54  53 S7        30.02R
OLATHE IND     CLEAR     66  56  70 SE9       30.10S
6HR MIN TEMP:  66; 6HR MAX TEMP:  73;

OLATHE EXE     CLEAR     66  57  72 SE7       30.10R
6HR MIN TEMP:  66; 6HR MAX TEMP:  72;

SALINA         LGT RAIN  66  59  78 SW15      30.05R
6HR MIN TEMP:  66; 6HR MAX TEMP:  80; 6HR PCP: TRACE;

TOPEKA BILLARD PTCLDY    71  60  68 SE8       30.06R
6HR MIN TEMP:  71; 6HR MAX TEMP:  80;

TOPEKA FORBES  PTCLDY    70  58  65 SE8       30.06R
6HR MIN TEMP:  70; 6HR MAX TEMP:  79;

$$



USA.gov is the U.S. government's official web portal to all federal, state and local government web resources and services.